This demonstration page uses our WeatherBlox Daily Observations layout. Learn more.

40.92945, -100.16068

Hourly Observations for April 26, 2018

Temp ( °F °C ) Dew Point ( °F °C ) Humidity (%) Winds ( mph kmh ) Pressure ( in mb ) Visibility ( mi km ) Precip ( " mm )
12:15 am 00:15 Clear 44 6.7 35 1.6 70 70 S 9 15 30 1016 10 16.0934 0 0
12:35 am 00:35 Clear 44 6.5 35 1.5 71 71 S 9 15 30 1016 10 16.0934 0 0
12:55 am 00:55 Clear 44 6.4 35 1.5 71 71 SSW 7 11 30.03 1017 10 16.0934 0 0
1:15 am 01:15 Clear 45 7 35 1.7 69 69 SSW 9 15 30 1016 10 16.0934 0 0
1:35 am 01:35 Clear 44 6.9 35 1.6 69 69 S 9 15 30 1016 10 16.0934 0 0
1:55 am 01:55 Clear 44 6.7 35 1.6 70 70 S 10 17 30 1016 10 16.0934 0 0
2:15 am 02:15 Clear 43 6.3 35 1.7 73 73 S 9 15 30.03 1017 10 16.0934 0 0
2:35 am 02:35 Clear 43 6.2 35 1.7 73 73 S 9 15 30.03 1017 10 16.0934 0 0
2:55 am 02:55 Clear 42 5.5 35 1.5 76 76 S 5 7 30.03 1017 10 16.0934 0 0
3:15 am 03:15 Clear 41 5.1 35 1.5 78 78 S 6 9 30 1016 10 16.0934 0 0
3:35 am 03:35 Clear 41 4.9 35 1.4 78 78 S 5 7 30 1016 10 16.0934 0 0
3:55 am 03:55 Clear 41 5.1 34 1.3 77 77 SSE 5 7 30 1016 10 16.0934 0 0
4:15 am 04:15 Clear 40 4.7 34 1.2 78 78 SE 3 6 30.03 1017 10 16.0934 0 0
4:35 am 04:35 Clear 38 3.1 33 0.4 83 83 Calm 30.06 1018 10 16.0934 0 0
4:55 am 04:55 Clear 37 3 33 0.4 83 83 SE 3 6 30.06 1018 10 16.0934 0 0
5:15 am 05:15 Clear 38 3.1 33 0.6 84 84 SE 5 7 30.03 1017 10 16.0934 0 0
5:35 am 05:35 Clear 38 3.6 33 0.8 82 82 SE 9 15 29.97 1015 10 16.0934 0 0
5:55 am 05:55 Clear 39 4.1 34 1.1 81 81 SE 6 9 29.97 1015 10 16.0934 0 0
6:15 am 06:15 Clear 39 3.9 34 1 82 82 SE 5 7 29.97 1015 10 16.0934 0 0
6:35 am 06:35 Clear 38 3.2 33 0.8 84 84 ESE 3 6 29.97 1015 10 16.0934 0 0
6:55 am 06:55 Sunny 37 2.6 34 0.9 89 89 ENE 5 7 30 1016 10 16.0934 0 0
7:15 am 07:15 Sunny 37 2.5 34 0.9 89 89 N 7 11 30.06 1018 10 16.0934 0 0
7:35 am 07:35 Sunny 37 3 34 1.2 88 88 Calm 30.06 1018 10 16.0934 0 0
7:55 am 07:55 Sunny 39 3.7 35 1.7 87 87 ENE 3 6 30.03 1017 7 11.26538 0 0
8:15 am 08:15 Sunny 40 4.6 36 2.1 84 84 Calm 30.03 1017 10 16.0934 0 0
8:35 am 08:35 Sunny 44 6.6 37 2.9 77 77 Calm 30 1016 10 16.0934 0 0
8:55 am 08:55 Sunny 47 8.4 39 3.9 74 74 WNW 8 13 30.03 1017 10 16.0934 0 0
9:15 am 09:15 Sunny 51 10.3 40 4.6 68 68 N 12 19 30 1016 10 16.0934 0 0
9:35 am 09:35 Sunny 57 13.7 39 3.9 52 52 N 23 37 30 1016 10 16.0934 0 0
9:55 am 09:55 Sunny 57 14 39 3.7 50 50 NNW 25 41 30 1016 10 16.0934 0 0
10:15 am 10:15 Partly Cloudy 55 12.9 39 3.7 54 54 NNW 25 41 30.03 1017 10 16.0934 0 0
10:35 am 10:35 Mostly Cloudy 55 12.6 38 3.4 54 54 NNW 23 37 30.03 1017 10 16.0934 0 0
10:55 am 10:55 Partly Cloudy 55 12.6 37 3 52 52 N 25 41 30.03 1017 10 16.0934 0 0
11:15 am 11:15 Mostly Cloudy 54 12 37 2.9 54 54 N 23 37 30.03 1017 10 16.0934 0 0
11:35 am 11:35 Cloudy 54 12.3 37 2.8 53 53 N 30 48 30.06 1018 10 16.0934 0 0
11:55 am 11:55 Mostly Cloudy 55 13 35 1.9 47 47 N 28 44 30.06 1018 10 16.0934 0 0
12:15 pm 12:15 Partly Cloudy 57 13.7 36 2.4 47 47 N 29 46 30.06 1018 10 16.0934 0 0
12:35 pm 12:35 Partly Cloudy 59 14.8 37 2.5 44 44 N 31 50 30.03 1017 10 16.0934 0 0
12:55 pm 12:55 Partly Cloudy 61 16 37 2.6 41 41 N 29 46 30.03 1017 10 16.0934 0 0
1:15 pm 13:15 Mostly Cloudy 61 16.2 35 1.7 38 38 N 31 50 30.03 1017 10 16.0934 0 0
1:35 pm 13:35 Mostly Cloudy 63 17 33 0.5 33 33 N 28 44 30.06 1018 10 16.0934 0 0
1:55 pm 13:55 Partly Cloudy 63 17.1 33 0.3 32 32 N 25 41 30.06 1018 10 16.0934 0 0
2:15 pm 14:15 Sunny 63 17.3 32 -0.2 31 31 N 31 50 30.06 1018 10 16.0934 0 0
2:35 pm 14:35 Sunny 63 17.3 32 -0.2 31 31 NNE 25 41 30.06 1018 10 16.0934 0 0
2:55 pm 14:55 Sunny 64 17.5 29 -1.7 27 27 NNE 25 41 30.03 1017 10 16.0934 0 0
3:15 pm 15:15 Sunny 64 17.6 28 -2.3 26 26 N 26 43 30.03 1017 10 16.0934 0 0
3:35 pm 15:35 Sunny 64 17.6 29 -1.7 27 27 N 23 37 30.03 1017 10 16.0934 0 0
3:55 pm 15:55 Sunny 64 17.9 30 -1.3 27 27 N 20 31 30.03 1017 10 16.0934 0 0
4:15 pm 16:15 Sunny 65 18.1 28 -2 26 26 N 20 31 30.03 1017 10 16.0934 0 0
4:35 pm 16:35 Sunny 64 18 28 -2.3 25 25 N 22 35 30.03 1017 10 16.0934 0 0
4:55 pm 16:55 Sunny 64 17.9 27 -2.9 24 24 N 24 39 30.03 1017 10 16.0934 0 0
5:15 pm 17:15 Sunny 64 17.6 27 -2.8 25 25 N 18 30 30.03 1017 10 16.0934 0 0
5:35 pm 17:35 Sunny 64 17.5 27 -2.8 25 25 N 23 37 30.03 1017 10 16.0934 0 0
5:55 pm 17:55 Sunny 64 17.5 28 -2.5 26 26 N 21 33 30.03 1017 10 16.0934 0 0
6:15 pm 18:15 Sunny 63 17.2 27 -2.9 25 25 N 21 33 30.06 1018 10 16.0934 0 0
6:35 pm 18:35 Sunny 63 17.2 27 -2.7 26 26 NNE 13 20 30.06 1018 10 16.0934 0 0
6:55 pm 18:55 Sunny 62 16.7 26 -3.1 26 26 N 17 28 30.06 1018 10 16.0934 0 0
7:15 pm 19:15 Sunny 62 16.5 27 -3 26 26 N 16 26 30.06 1018 10 16.0934 0 0
7:35 pm 19:35 Sunny 61 16 26 -3.1 27 27 N 14 22 30.06 1018 10 16.0934 0 0
7:55 pm 19:55 Sunny 59 14.9 27 -2.6 30 30 N 8 13 30.06 1018 10 16.0934 0 0
8:15 pm 20:15 Sunny 55 12.8 29 -1.8 37 37 N 7 11 30.09 1019 10 16.0934 0 0
8:35 pm 20:35 Clear 52 11.2 29 -1.5 42 42 N 7 11 30.09 1019 10 16.0934 0 0
8:55 pm 20:55 Clear 50 10.2 28 -2.1 42 42 N 6 9 30.12 1020 10 16.0934 0 0
9:15 pm 21:15 Clear 51 10.7 28 -2.4 40 40 N 5 7 30.12 1020 10 16.0934 0 0
9:35 pm 21:35 Clear 47 8.6 29 -1.5 49 49 N 5 7 30.15 1021 10 16.0934 0 0
9:55 pm 21:55 Clear 44 6.5 29 -1.5 57 57 Calm 30.18 1022 10 16.0934 0 0
10:15 pm 22:15 Clear 44 6.9 28 -2 53 53 W 3 6 30.18 1022 10 16.0934 0 0
10:35 pm 22:35 Clear 43 6 31 -0.8 62 62 W 6 9 30.18 1022 10 16.0934 0 0
10:55 pm 22:55 Clear 42 5.6 32 0 68 68 W 7 11 30.18 1022 10 16.0934 0 0
11:15 pm 23:15 Clear 41 4.9 31 -0.8 67 67 W 6 9 30.18 1022 10 16.0934 0 0
11:35 pm 23:35 Clear 42 5.7 32 0 67 67 W 6 9 30.18 1022 10 16.0934 0 0
11:55 pm 23:55 Clear 40 4.3 31 -0.3 72 72 W 6 9 30.21 1023 10 16.0934 0 0

Powered by AerisWeather